Find Starlink 5800

NORAD ID: 56041 Int'l Des: 2023-042 Owner: SPXS Country: US Constellation: starlink operational
LEOCIRCULAR

当前视图

正在加载3D地球...

About Starlink 5800

Starlink 5800 (NORAD 56041) is a starlink constellation satellite (v1.5) launched Mar 24, 2023 by SPXS of US. It operates in LEO, CIRCULAR orbit with a mass of 305.00 kg.

关于 Starlink 5800

正在加载描述...

即将过境

Passes for default location (London). Set your location on the main map for personalized predictions.

高度历史

Loading altitude history...

两行轨道根数

1 56041U 23042BH 26193.96772117 .00000452 00000-0 25959-4 0 9993
2 56041 43.0053 46.4813 0001301 273.4136 86.6567 15.27576876182328
Epoch: Jul 12, 2026 • Age: 31 hours

当前状态

高度 482.6 km
远地点 / 近地点 N/A
速度 7.63 km/s
星下点 5.51°N, 165.59°W
发射日期 Mar 24, 2023
运行时间 3.3 years
类型 internet

技术详情

分类 Payload
质量 305.00 kg
干质量 290.00 kg
总质量 305.00 kg
长度 0.20 m
直径 2.80 m
跨度 9.00 m
形状 Box + pan
制造商 SPXS
平台类型 Starlink
阶段状态 In Orbit
所有者/国家 SPXS/US

Most Searched